Regional Weather Roundup
Issued by NWS Raleigh/Durham, NC

Home | Current Version | Previous Version | Text Only | Print | Product List | Glossary On
Versions: 1 2 3 4 5 6 7 8 9 10 11 12 13 14 15 16 17 18 19 20 21 22 23 24 25 26 27 28 29 30 31 32 33 34 35 36 37 38 39 40 41 42 43 44 45 46 47 48 49 50
000
ASUS42 KRAH 270810
RWRRAH
NORTH CAROLINA WEATHER ROUNDUP
NATIONAL WEATHER SERVICE RALEIGH NC
400 AM EDT MON APR 27 2015

NOTE: "FAIR" INDICATES FEW OR NO CLOUDS BELOW 12,000 FEET WITH NO
SIGNIFICANT WEATHER AND/OR OBSTRUCTIONS TO VISIBILITY.

NCZ001-053-055-056-065-067-270900-
WESTERN NORTH CAROLINA

CITY           SKY/WX    TMP DP  RH WIND       PRES   REMARKS
ASHEVILLE      PTCLDY    49  42  77 N7        29.80F
JEFFERSON      MOCLDY    44  33  65 NW12G21   29.78F
MORGANTON      PTCLDY    46  46 100 CALM      29.83R
HICKORY        MOCLDY    48  46  93 CALM      29.77F
RUTHERFORDTON  CLEAR     47  47 100 CALM      29.80S
MOUNT AIRY       N/A     43  40  89 CALM      29.79S
BOONE          PTCLDY    44  35  70 W5        29.80S
$$

NCZ021-022-025-041-071-084-088-270900-
CENTRAL NORTH CAROLINA

CITY           SKY/WX    TMP DP  RH WIND       PRES   REMARKS
CHARLOTTE      CLEAR     47  44  90 CALM      29.78S
GREENSBORO     CLEAR     43  42  97 SW3       29.76F
WINSTON-SALEM  CLEAR     45  43  93 CALM      29.78S
RALEIGH-DURHAM PTCLDY    41  40  96 CALM      29.77S
FORT BRAGG     MOCLDY    49  47  92 N2        29.75F
FAYETTEVILLE   CLOUDY    50  49  96 NW3       29.76S
BURLINGTON     PTCLDY    42  41  96 CALM      29.76F FOG
LAURINBURG     CLOUDY    49  48  97 N3        29.77F
$$

NCZ011-015-027-028-043-044-047-080-103-270900-
NORTHEASTERN NORTH CAROLINA

CITY           SKY/WX    TMP DP  RH WIND       PRES   REMARKS
ROCKY MT-WILSO CLEAR     44  43  96 CALM      29.76S
GREENVILLE     CLEAR     45  45 100 CALM      29.78S FOG
WASHINGTON       N/A     45  44  97 CALM      29.75R
ELIZABETH CITY CLEAR     40  39  97 W5        29.74R
MANTEO         PTCLDY    40  38  92 CALM      29.72S
CAPE HATTERAS  PTCLDY    52  40  63 NE8       29.71R
$$

NCZ078-087-090-091-093-098-101-270900-
SOUTHEASTERN NORTH CAROLINA

CITY           SKY/WX    TMP DP  RH WIND       PRES   REMARKS
LUMBERTON      CLOUDY    51  48  89 N6        29.76F
GOLDSBORO      CLOUDY    48  47  98 CALM      29.74S
KINSTON        CLEAR     48  47  96 CALM      29.76S
KENANSVILLE    PTCLDY    46  46  98 CALM      29.77S
NEW BERN       MOCLDY    50  46  86 NW5       29.76F
CHERRY POINT   CLOUDY    50  46  86 W7        29.75S
BEAUFORT       CLOUDY    52  48  86 N10       29.73S
JACKSONVILLE   CLOUDY    50  48  93 NW8       29.73F
WILMINGTON     CLOUDY    50  48  93 N6        29.73F
$$




USA.gov is the U.S. government's official web portal to all federal, state and local government web resources and services.